Wind_Speed
68 69 69 70 71 71 72 72 73 73 73 73 72 72 72 71 71 70 69 67 67 67 67 68 68 69 70 71 72 73 75 75 75 75 76 76 78 77 76 76 75 74 73 73 72 72 72 71 70 70 69 68 67 68 69 69 70 68 66 64 63 62 60 59 57 56 57 58 59 60 60 61 60 60 59 58 57 56 55 55 57 59 59 58 60
72 73 73 74 74 75 76 77 77 77 78 78 78 77 76 75 75 75 74 73 71 70 70 70 70 71 72 73 73 73 74 77 78 79 78 78 79 79 79 78 76 75 75 75 73 73 73 72 72 71 71 70 69 69 71 72 72 71 69 67 66 65 64 63 60 57 57 59 60 61 61 60 60 59 58 56 55 54 54 54 56 57 58 57 58
76 77 78 78 78 78 79 79 80 80 81 81 82 81 80 79 79 79 79 78 77 76 74 73 73 73 74 76 76 76 76 77 79 81 82 81 80 80 80 79 77 75 75 75 74 74 73 73 73 73 72 72 71 71 72 73 74 73 71 70 70 69 68 66 62 58 58 59 60 61 60 60 60 58 57 56 55 55 54 54 55 56 57 57 56
79 80 81 81 80 80 80 80 80 80 81 81 82 82 82 82 82 82 82 82 81 80 79 77 76 75 76 77 79 80 79 79 81 82 84 84 83 82 82 81 79 76 74 74 74 73 73 74 74 74 74 73 71 71 72 73 74 74 74 73 73 72 70 68 63 59 59 59 60 60 60 60 59 57 57 58 58 57 57 56 56 56 56 56 55
82 82 82 82 82 83 84 84 84 83 83 83 83 83 84 84 85 85 86 86 86 85 83 81 80 78 77 78 80 82 83 83 83 84 86 86 85 85 84 83 82 79 77 75 74 73 72 73 74 74 74 74 72 71 71 73 75 75 75 75 75 73 72 69 64 61 60 61 62 61 61 61 59 58 58 58 59 59 59 59 58 57 57 57 57
83 82 82 83 85 87 89 90 90 89 88 88 88 88 88 88 89 89 90 90 91 90 89 88 86 84 81 80 81 83 86 86 86 87 88 89 88 87 87 87 86 83 80 78 77 76 74 74 74 75 75 76 75 73 73 74 75 76 77 77 76 74 73 70 64 61 62 64 65 64 63 62 61 61 60 59 58 59 60 60 59 59 59 59 59
83 83 84 87 89 91 93 93 92 91 91 90 90 91 91 91 92 92 92 92 92 93 92 92 92 91 89 86 84 84 87 89 89 89 90 90 90 89 89 89 89 88 84 81 79 78 77 76 76 75 76 77 77 75 75 76 76 77 78 78 76 74 74 70 64 62 63 65 66 66 65 63 62 62 62 61 60 60 59 60 60 60 60 60 59
84 86 88 90 92 93 93 93 91 91 91 89 88 88 89 88 89 89 90 90 90 91 91 91 91 92 93 92 90 88 89 91 92 92 92 92 91 91 91 90 91 91 88 85 83 81 79 77 77 78 79 80 81 80 78 78 79 80 80 79 77 75 75 72 68 65 65 66 67 67 66 64 63 63 63 63 63 62 61 60 59 60 61 60 60
86 89 92 94 94 94 93 93 91 89 88 87 84 83 82 81 81 82 82 82 83 85 87 88 89 90 91 92 93 92 91 92 95 95 95 95 93 92 91 91 91 92 91 89 87 86 83 81 80 80 79 77 79 83 84 84 84 85 86 86 84 80 77 74 71 68 67 67 68 68 66 66 65 63 63 63 63 64 63 61 60 61 61 62 62
90 92 93 93 93 92 92 90 89 86 84 81 78 75 73 71 71 71 71 71 73 75 78 81 83 85 87 89 92 94 93 93 96 97 97 97 97 94 91 91 90 90 91 91 90 89 88 87 85 84 82 78 75 77 79 82 84 85 88 89 86 82 77 73 72 71 71 70 70 70 68 67 66 64 63 62 61 63 64 64 64 63 63 63 63
92 94 93 92 90 89 87 85 83 80 76 72 69 65 61 58 57 56 56 56 58 60 62 63 65 68 71 75 80 86 91 93 95 98 99 99 100 98 94 92 91 90 88 89 90 91 91 90 89 88 87 85 81 78 77 78 79 80 82 83 81 79 77 76 76 75 74 73 72 71 70 68 67 65 63 62 61 62 62 64 65 65 65 65 65
92 93 92 90 88 84 81 78 74 71 65 60 56 51 48 46 45 45 44 44 46 48 49 49 50 51 53 55 59 66 75 84 91 96 99 100 101 101 99 95 93 92 90 88 87 88 90 91 90 89 89 88 87 86 84 83 82 81 81 80 80 80 79 78 77 76 76 77 75 72 70 69 68 67 65 63 62 62 62 62 63 64 66 66 65
89 89 88 86 84 80 75 70 65 59 52 47 44 43 42 41 39 39 38 38 40 41 43 44 45 46 47 47 47 50 56 66 76 87 95 98 100 101 102 100 96 93 92 90 88 87 87 89 90 91 91 90 90 89 88 87 86 85 84 82 81 81 81 80 80 79 79 80 78 74 72 71 69 68 67 65 64 63 63 62 63 63 64 65 65
87 86 83 81 79 74 67 61 56 49 43 40 40 40 40 38 36 35 33 33 34 35 36 38 40 42 43 43 43 45 47 52 59 70 82 91 96 98 99 100 99 96 92 90 89 88 86 86 89 92 93 93 92 92 91 90 90 89 89 88 86 85 85 85 85 84 83 82 81 77 75 74 72 70 69 68 66 65 64 63 64 64 65 65 64
85 83 79 75 71 65 58 52 48 44 41 41 40 39 38 37 34 32 31 30 31 32 32 33 34 36 39 40 41 42 44 45 48 54 65 76 86 93 95 96 97 97 95 91 88 88 87 86 87 90 94 95 95 95 94 93 93 93 93 94 93 92 91 91 90 89 87 85 83 81 79 77 75 73 71 70 68 66 66 65 65 65 66 66 65
81 78 73 67 61 55 50 46 42 41 41 42 41 39 38 37 35 33 31 30 29 30 30 29 30 31 33 35 37 39 41 42 42 44 50 58 69 79 87 91 92 93 93 92 90 89 89 88 86 87 90 93 95 97 97 97 97 97 97 96 96 94 92 91 90 91 91 89 86 85 83 80 79 76 74 73 70 68 67 66 66 66 66 67 66
75 70 64 58 53 47 44 41 40 40 40 41 41 39 39 39 38 36 34 34 32 30 29 29 29 29 30 31 33 35 36 38 39 40 41 45 51 60 70 78 84 86 88 89 90 90 90 90 89 88 87 88 91 93 95 97 98 98 98 98 97 95 93 91 89 90 91 91 90 88 85 82 81 80 78 75 72 70 68 66 66 65 66 67 66
68 59 53 50 46 42 40 38 38 40 41 40 40 40 40 41 41 40 38 38 37 34 31 29 30 30 29 29 30 32 34 35 36 36 37 38 40 45 52 59 67 73 78 81 85 89 92 92 90 89 89 88 88 90 92 93 95 97 97 98 97 96 95 93 92 92 91 92 92 89 86 83 81 81 81 78 74 70 68 66 66 66 65 66 65
59 51 46 45 43 39 38 37 37 39 40 39 39 39 40 41 44 44 42 42 41 39 36 33 32 32 30 29 29 30 32 33 34 34 34 35 35 37 40 45 51 58 65 70 75 81 87 92 92 91 90 90 89 89 91 92 92 94 95 97 97 97 96 95 94 94 93 93 92 91 88 83 81 82 82 79 74 71 69 68 67 67 66 65 64
51 47 44 42 39 37 36 36 37 39 39 37 37 39 40 42 45 46 45 44 43 42 40 37 35 34 32 30 28 29 30 32 33 33 33 33 34 35 37 39 42 47 53 60 66 72 78 85 90 92 92 91 91 90 91 92 92 92 93 94 95 96 97 97 96 95 94 93 92 91 89 86 84 84 83 80 76 73 72 70 68 68 67 66 65
44 43 42 40 37 35 35 36 37 38 37 36 35 37 39 41 44 46 47 45 42 41 40 37 35 33 32 31 28 28 29 31 31 32 32 33 34 36 37 38 39 40 43 48 54 61 67 74 82 88 91 92 93 93 93 93 94 93 93 94 94 94 94 94 94 94 94 93 91 90 89 88 87 87 85 81 78 75 74 72 70 68 67 66 65
40 38 39 37 35 34 35 36 37 36 34 34 35 36 38 41 43 45 46 43 40 38 37 35 33 31 31 29 28 27 27 29 30 30 31 32 34 35 36 38 38 38 38 39 41 46 51 58 65 73 80 85 89 91 93 94 95 96 96 96 97 96 95 93 92 91 89 88 88 89 89 89 89 88 86 82 79 76 75 75 73 70 68 66 65
37 35 35 34 34 35 35 35 36 35 33 35 36 37 38 40 41 42 42 40 37 35 34 33 31 29 28 28 26 26 27 27 28 28 29 30 31 32 33 33 34 33 33 33 33 35 37 41 46 53 60 67 74 80 86 90 92 95 97 99 99 100 98 97 95 93 90 86 84 85 87 88 89 89 86 82 79 76 75 76 75 72 70 67 65
36 35 33 32 32 34 35 36 35 33 33 36 38 39 39 39 38 39 39 37 35 33 32 30 28 27 27 27 26 26 27 27 28 28 28 28 29 29 29 28 28 28 28 28 28 29 31 33 36 39 44 50 57 64 71 78 83 87 91 95 98 99 99 98 96 94 93 90 86 83 83 83 85 86 85 82 78 76 76 77 76 74 72 70 67
35 34 32 32 32 34 35 36 35 34 35 37 38 39 38 37 36 36 36 35 33 32 31 29 28 27 26 26 27 27 27 27 28 28 28 28 27 27 27 27 27 27 27 27 27 28 29 30 32 33 36 39 43 48 54 60 67 73 79 84 89 94 96 97 95 93 92 92 91 88 85 82 81 81 82 81 79 76 75 76 76 74 73 71 69
33 32 32 32 33 34 35 36 36 35 36 37 37 37 36 34 33 34 34 33 32 32 32 31 29 28 27 27 27 28 28 28 28 28 28 28 28 28 28 28 28 28 28 29 29 30 31 31 32 33 35 36 38 41 44 47 51 56 61 68 75 82 88 92 94 93 91 91 91 92 90 87 84 81 79 79 78 78 77 76 75 74 74 72 70
32 32 32 33 34 35 35 35 35 35 35 35 36 36 35 33 32 32 33 32 32 32 32 32 32 30 29 29 29 29 29 29 28 29 29 29 29 29 29 30 30 31 31 31 32 33 33 34 34 36 37 37 39 41 43 44 46 48 51 55 61 67 72 78 85 89 91 91 91 91 90 90 89 87 83 79 77 77 78 77 75 74 74 74 71
32 32 32 34 35 35 35 34 34 33 33 34 34 34 35 34 33 33 33 32 32 32 32 32 33 33 32 32 32 31 30 29 30 30 30 30 31 31 31 32 33 33 33 34 36 36 37 38 38 40 41 42 43 44 46 47 48 49 51 53 56 59 62 65 69 75 81 86 90 91 90 89 88 89 88 85 80 77 75 75 74 73 74 73 71
32 32 33 35 36 36 35 34 34 33 33 33 33 33 34 35 34 34 34 33 33 33 33 33 34 34 34 34 34 33 32 31 31 32 32 32 33 33 34 35 35 35 36 38 39 39 40 42 43 44 45 46 47 49 50 51 52 54 54 56 57 59 61 62 64 66 69 74 81 87 90 89 86 86 88 88 87 82 78 76 74 73 73 73 72
31 32 33 34 35 35 35 35 35 35 34 34 34 34 35 36 36 36 35 34 34 33 34 35 36 35 35 36 36 35 35 34 33 34 34 34 34 35 36 36 37 38 39 41 42 42 43 45 46 47 48 50 51 52 53 55 57 59 59 60 61 62 62 64 66 66 66 67 70 76 83 86 87 87 86 86 87 86 83 81 78 75 73 73 72
29 31 32 33 34 35 35 36 35 35 35 36 36 36 36 37 37 37 36 35 34 33 34 35 36 36 36 37 37 37 36 36 36 36 36 36 36 36 37 37 39 40 41 43 44 45 46 47 48 49 51 52 53 54 56 58 60 61 62 63 64 64 64 65 66 68 68 68 67 69 73 79 84 88 86 83 82 83 83 82 81 78 74 73 72
29 30 32 34 36 36 36 36 36 37 37 38 39 39 39 38 37 37 37 37 35 34 33 34 34 35 36 37 37 37 37 37 37 36 36 37 37 37 38 38 40 42 43 44 45 47 48 48 50 51 52 53 54 55 56 58 59 60 61 61 61 61 62 63 65 68 69 69 70 69 69 72 77 84 86 81 76 78 80 80 80 77 74 73 72
30 32 33 36 38 38 38 38 38 39 40 41 42 43 42 40 38 36 37 37 36 35 34 33 34 35 36 36 37 37 37 36 36 36 35 36 37 37 38 39 41 42 43 44 45 47 48 49 50 51 52 52 53 54 54 54 54 54 52 51 51 53 55 57 60 63 66 68 69 69 68 69 71 78 84 81 74 73 75 76 76 76 75 74 72
32 33 35 37 38 38 39 40 40 41 43 44 44 44 44 42 40 39 38 37 36 35 34 33 34 35 36 36 36 36 35 34 33 33 34 35 36 36 37 38 39 40 41 43 45 46 46 47 48 50 50 50 50 50 49 47 45 43 40 37 38 40 42 44 47 53 58 63 66 67 66 67 69 72 78 79 73 70 71 72 73 75 75 74 72
36 36 37 38 39 40 41 41 42 42 43 44 45 45 44 42 41 40 39 38 36 34 34 33 34 34 35 36 36 35 33 31 29 30 32 32 32 32 34 35 36 38 39 41 43 44 45 46 46 47 47 45 44 41 40 38 35 32 30 29 30 31 31 32 35 40 47 52 58 62 63 64 66 69 73 76 73 68 69 70 71 73 72 70 70
42 42 43 44 43 43 42 42 43 44 45 46 47 46 46 44 43 41 39 38 36 34 34 33 33 33 34 35 35 34 31 28 26 27 28 27 28 29 30 32 34 36 38 40 41 42 42 41 40 40 39 37 35 33 33 32 30 27 26 26 27 26 27 26 27 31 36 40 45 52 57 59 62 66 69 72 72 68 67 68 68 69 68 67 67
47 47 47 47 46 45 44 44 45 47 49 49 49 47 46 45 44 41 39 37 36 34 34 32 31 31 32 33 34 32 29 25 24 24 24 25 26 28 30 32 34 35 36 36 37 36 35 34 32 31 31 30 29 29 31 31 28 25 25 26 25 25 24 23 21 24 28 31 35 42 48 52 57 62 65 69 70 67 65 67 67 66 65 65 66
52 51 49 48 48 47 48 50 51 52 52 52 51 48 46 44 43 41 39 36 34 34 33 30 29 30 30 31 31 28 24 22 20 21 23 25 28 30 31 32 32 31 31 30 30 29 27 27 26 27 27 28 28 28 30 30 28 26 26 24 23 23 22 19 18 21 24 27 29 33 39 44 52 58 62 67 70 67 65 67 66 63 62 62 63
55 54 52 51 51 51 52 54 55 55 55 53 51 48 46 43 41 39 37 34 33 33 31 28 28 28 29 29 26 23 20 18 18 20 24 26 28 29 29 28 27 25 24 23 22 21 21 22 24 25 27 28 28 28 28 29 28 27 26 23 20 19 18 16 17 20 23 24 25 28 32 38 47 55 59 64 69 68 66 66 65 62 61 62 61
54 54 53 53 54 55 56 56 56 55 53 51 49 47 45 42 38 36 34 32 31 31 28 26 26 27 26 24 21 18 17 17 19 22 25 25 25 24 23 21 19 17 16 15 16 17 18 20 21 22 23 26 27 26 25 26 27 26 25 22 18 17 17 16 16 18 20 20 23 26 30 34 41 49 55 61 67 67 65 64 64 62 61 61 60
54 54 55 55 57 57 57 56 54 53 51 49 47 45 43 40 36 33 30 29 29 27 25 23 24 24 22 19 16 15 15 18 21 23 23 22 20 17 15 12 10 10 11 13 14 15 16 16 17 18 18 19 20 19 18 20 23 23 23 20 16 16 19 17 14 17 19 20 23 26 30 32 35 39 45 54 62 65 63 62 62 62 61 59 58
54 56 58 59 58 57 56 55 53 51 49 46 44 41 38 34 31 28 26 26 25 23 21 22 22 21 18 14 13 14 16 18 20 20 18 16 12 8 6 5 6 8 10 11 12 14 15 16 17 17 15 13 12 11 12 14 17 19 20 18 14 17 21 19 16 18 20 22 25 28 31 33 34 35 37 42 51 59 60 59 59 61 60 57 56
54 57 58 58 56 54 54 53 52 49 47 44 41 37 33 28 24 22 22 22 20 19 19 20 19 16 13 12 12 14 16 17 16 14 10 5 3 3 3 3 5 7 8 10 12 13 14 15 16 15 13 11 10 10 11 12 14 16 17 15 14 18 23 22 20 20 22 24 25 26 28 31 32 33 33 34 39 46 52 54 56 57 57 55 52
55 58 58 55 53 53 52 51 49 47 45 42 38 33 27 22 18 17 18 16 15 16 17 17 15 12 10 10 12 13 14 13 10 5 2 4 5 4 2 2 4 6 8 10 11 11 13 14 14 13 12 10 8 8 9 10 12 14 14 12 13 19 24 24 21 19 21 24 25 25 27 28 28 29 32 33 34 38 44 49 51 52 52 50 46
56 59 56 53 52 52 51 48 46 44 42 39 34 27 20 15 13 13 13 11 12 14 14 13 10 9 9 10 11 11 10 7 2 4 6 6 5 3 1 3 6 9 10 10 9 9 10 11 11 11 10 9 7 6 7 9 10 9 8 11 17 22 24 21 18 17 19 22 22 22 23 23 24 26 30 31 31 34 39 43 45 47 46 43 38
56 58 55 52 51 51 49 47 43 40 38 35 30 22 16 12 11 10 8 8 10 12 11 8 7 7 8 10 9 7 6 1 6 7 7 6 4 2 2 5 8 11 12 11 10 9 9 9 9 8 7 7 7 6 5 4 3 3 9 15 18 20 18 16 16 18 21 22 22 21 22 23 24 26 28 29 28 29 31 34 36 37 36 34 33
56 58 56 52 50 49 47 45 41 37 34 31 26 21 16 14 11 8 6 8 11 10 7 5 6 7 9 8 5 3 0 5 8 7 6 5 2 1 3 6 8 10 11 11 10 10 8 9 8 6 4 5 6 5 4 5 5 6 12 17 16 15 15 15 16 18 21 23 25 25 26 27 27 26 26 28 28 27 28 29 29 29 29 31 33
55 58 56 53 50 48 45 43 40 35 30 27 24 20 16 13 10 8 8 10 10 7 4 4 5 8 8 4 1 2 5 8 6 5 5 3 1 1 4 6 8 10 11 11 11 10 8 8 7 4 2 3 4 5 6 7 7 7 10 14 15 15 14 14 15 16 19 22 23 23 25 27 27 26 26 28 28 28 27 27 26 27 29 31 32
54 57 57 53 50 47 44 40 38 35 30 25 22 18 14 11 10 9 11 11 8 4 3 4 7 8 5 2 4 5 8 8 5 4 4 2 1 3 5 7 9 10 11 11 12 11 8 7 7 5 3 2 2 5 7 6 5 6 6 7 10 12 12 12 12 14 16 19 19 19 19 20 21 23 25 26 26 26 25 24 25 26 27 28 28
53 55 56 53 49 46 43 39 35 33 30 25 21 17 14 12 11 12 12 10 5 3 3 5 9 8 1 5 5 6 8 6 3 3 3 2 2 5 6 8 9 11 12 12 12 12 9 7 5 6 5 4 3 4 6 5 4 5 5 6 7 8 9 11 12 13 14 16 18 19 18 17 18 21 22 23 23 23 22 23 23 24 24 25 25
51 53 54 52 48 45 42 38 34 31 28 25 21 17 15 14 14 14 12 7 3 3 5 8 10 5 4 6 4 4 5 4 1 1 4 4 2 5 6 8 9 12 13 13 12 11 10 8 5 4 6 5 4 4 5 6 6 6 7 9 11 11 11 12 12 13 15 16 18 18 18 18 18 18 17 17 18 19 20 20 21 21 21 22 23
Wind_Direction
302 301 299 298 296 294 292 290 288 286 285 283 281 278 276 273 271 269 268 267 267 266 265 263 262 260 258 256 255 255 255 254 254 254 255 257 258 259 259 259 258 258 258 258 258 258 258 257 257 257 258 258 258 259 259 259 260 260 259 259 258 259 259 259 260 261 260 260 259 259 257 256 256 255 254 254 254 254 254 255 256 256 257 257 257
304 303 302 300 298 296 294 292 289 287 285 282 280 278 277 275 272 270 268 267 266 265 264 264 263 262 260 258 256 254 254 254 254 253 253 254 255 257 258 258 258 257 257 257 257 257 257 257 256 256 257 258 258 258 258 258 259 259 259 259 259 258 259 259 261 262 261 260 258 257 256 256 255 255 255 254 253 253 252 252 253 254 255 255 256
306 304 302 301 299 297 294 292 290 287 285 283 281 279 277 276 274 272 270 269 267 266 264 263 262 262 261 259 257 255 253 253 253 253 254 254 254 254 255 256 257 255 254 255 255 256 256 256 256 256 257 258 257 256 257 257 258 259 259 259 259 258 259 260 262 263 261 259 257 256 255 255 255 254 255 254 253 251 251 250 250 252 253 253 254
306 303 301 300 298 295 293 291 289 287 285 282 281 279 278 277 276 274 273 271 269 267 265 263 261 259 259 259 258 256 254 252 252 251 252 252 252 252 253 253 254 254 252 252 252 253 253 255 256 256 257 258 257 256 256 257 257 258 258 258 258 258 259 260 262 261 259 257 256 256 255 254 254 255 255 255 254 252 251 251 250 251 251 252 252
305 303 301 299 297 295 293 291 289 287 285 282 280 279 278 277 276 275 274 272 270 268 267 264 261 259 258 258 258 256 254 252 252 251 251 251 251 251 250 251 251 252 252 251 251 251 251 252 254 255 256 257 257 256 255 256 256 257 257 257 257 257 258 259 259 258 257 258 257 257 256 255 256 255 255 255 256 255 253 252 251 251 251 251 251
305 303 301 299 298 297 296 294 292 290 288 285 283 281 279 277 275 274 272 271 270 269 267 266 263 261 259 258 257 256 255 252 251 250 251 251 251 250 249 248 249 249 250 250 250 250 250 250 251 252 253 254 254 254 254 254 255 255 256 255 256 257 257 257 256 256 257 259 259 258 258 257 257 256 255 255 255 256 255 254 253 252 252 252 252
305 303 301 300 299 298 297 296 295 293 291 289 287 285 282 280 277 275 272 270 268 267 267 266 265 263 261 259 257 255 254 252 250 249 248 249 249 250 249 248 248 248 248 248 248 248 248 249 249 250 250 250 251 251 252 252 252 253 254 254 255 255 255 255 254 255 257 260 260 259 259 258 258 257 256 255 254 254 254 255 254 253 253 253 253
306 304 302 300 299 298 298 297 296 294 292 291 289 287 285 283 281 278 275 272 269 267 266 265 264 263 262 260 258 254 252 250 250 248 247 246 245 245 246 247 247 247 246 246 246 246 246 247 248 248 249 249 250 252 253 253 252 251 251 252 254 255 255 254 254 255 257 260 261 260 259 259 258 258 258 256 255 253 253 254 255 255 254 254 254
307 304 302 301 301 300 300 299 297 296 294 293 292 290 288 286 284 282 279 276 273 270 268 265 264 263 262 261 259 256 251 248 247 246 246 245 244 242 241 242 243 245 246 246 245 245 244 244 245 247 248 248 249 251 252 252 251 251 252 253 254 254 253 251 251 254 257 259 260 260 259 258 258 259 259 259 258 256 254 253 255 256 255 255 254
306 304 303 302 303 303 302 301 300 298 297 297 295 293 291 288 286 284 282 280 278 275 272 270 267 265 263 261 260 257 254 248 245 244 243 243 243 242 240 239 239 240 242 244 245 245 245 244 243 245 247 247 246 246 247 247 247 248 250 252 251 250 249 249 250 254 257 258 258 258 258 259 259 260 261 261 260 260 258 255 254 255 256 256 256
305 304 303 303 304 304 303 302 301 300 300 299 297 295 293 291 289 288 286 285 282 279 277 274 272 270 267 263 260 258 255 251 246 244 242 242 242 242 240 239 238 238 238 240 241 243 244 245 244 244 245 246 246 246 246 245 246 247 247 247 246 244 247 250 251 254 256 256 257 257 257 258 259 260 261 261 261 261 261 259 257 256 256 257 257
306 305 306 306 306 306 304 302 302 301 301 299 297 297 296 296 295 293 290 286 283 280 279 277 275 274 271 269 265 261 257 253 249 245 243 242 241 242 241 240 239 238 238 239 240 240 241 241 243 244 245 246 247 247 247 247 248 248 247 246 245 245 249 252 252 253 255 256 256 255 255 255 257 258 259 260 261 261 262 262 261 259 258 258 258
307 306 307 308 307 306 305 304 303 303 302 301 301 301 300 300 300 297 294 289 284 281 279 278 276 275 274 272 270 266 263 258 253 249 246 244 242 242 242 242 240 239 239 240 241 241 241 240 240 242 245 246 247 248 248 248 248 248 248 248 248 249 253 255 254 255 256 256 255 254 253 253 255 256 258 258 260 261 262 263 263 263 262 260 259
306 306 308 308 307 307 307 306 305 305 305 305 305 305 304 305 303 300 297 293 289 285 281 278 276 274 273 273 271 270 268 265 260 255 250 247 245 245 244 244 243 241 240 241 242 242 242 241 241 241 243 245 246 248 248 248 248 248 249 250 251 252 255 257 257 257 257 257 257 255 252 251 252 254 256 257 258 260 261 262 262 263 263 262 261
307 309 310 309 308 308 308 307 307 308 309 309 308 307 308 307 305 302 300 296 293 289 284 280 277 274 273 272 272 271 270 269 266 261 256 252 249 248 248 248 247 244 243 242 242 243 242 241 240 240 242 243 244 246 246 247 247 248 249 250 251 252 254 256 257 258 257 257 257 257 254 251 251 252 253 255 256 258 259 260 261 261 262 263 262
310 311 311 309 308 308 308 308 307 308 310 310 310 310 310 309 308 306 304 302 298 294 290 285 281 277 274 272 271 270 270 270 269 266 261 256 253 251 250 250 251 249 247 244 243 242 243 242 240 239 239 240 242 243 245 245 246 246 247 247 248 250 251 252 253 255 256 257 257 257 255 252 250 250 252 254 255 256 257 258 259 260 261 262 262
314 313 310 309 309 308 307 306 307 308 310 311 311 311 311 311 311 310 310 308 305 301 297 293 289 284 280 276 272 269 269 269 269 268 265 261 258 254 252 251 252 252 250 248 244 242 242 243 242 241 239 238 239 241 243 244 245 246 246 247 247 249 250 250 251 251 254 255 256 255 255 253 251 249 251 254 254 253 254 255 256 257 259 260 261
316 314 311 309 309 308 306 306 308 310 312 313 312 311 311 311 311 312 312 310 308 307 303 299 296 293 289 283 276 271 268 267 267 268 267 265 261 258 256 253 252 253 253 251 247 244 243 243 244 243 242 241 240 239 241 243 245 247 248 248 249 249 250 250 250 250 251 252 254 254 254 254 252 251 251 252 252 251 251 251 253 254 256 259 260
316 314 310 309 309 307 305 306 309 311 313 314 312 310 310 310 309 310 311 309 309 308 306 302 299 296 294 288 280 273 268 265 264 264 264 264 262 259 258 256 254 253 254 253 251 248 245 244 245 245 246 245 244 243 242 242 244 246 247 249 249 250 250 250 249 249 249 249 251 252 252 252 251 251 251 250 249 248 248 248 249 251 254 256 258
314 311 308 306 306 305 305 307 309 311 313 314 313 310 309 308 307 308 308 307 306 305 304 302 299 296 294 290 283 274 268 265 262 261 260 259 259 258 257 257 257 255 255 254 254 252 249 247 246 247 247 248 248 247 245 244 244 245 246 247 247 248 248 249 249 248 248 248 248 249 249 248 248 248 249 250 249 247 247 247 247 249 251 253 255
313 309 306 305 304 302 303 306 308 310 311 311 310 307 305 304 303 304 305 305 303 301 299 298 297 294 291 289 282 273 267 264 261 259 258 257 257 256 256 258 259 258 257 256 255 254 253 251 249 249 249 250 250 250 250 249 247 247 247 247 247 247 247 247 247 247 247 247 246 246 246 246 246 247 249 250 249 247 246 246 246 247 249 251 253
313 307 304 305 304 302 303 305 307 309 308 306 305 303 301 300 299 301 303 304 303 300 297 297 295 291 287 285 280 273 266 263 260 258 257 256 257 258 258 259 261 262 261 260 257 256 255 254 252 251 250 251 251 252 252 252 251 250 250 250 250 251 250 249 248 247 247 247 246 246 245 245 246 247 248 249 248 246 246 246 246 246 246 248 251
315 309 305 304 304 302 302 304 306 306 302 301 302 302 301 300 300 301 303 305 304 302 299 296 294 289 284 282 279 274 269 265 262 259 258 258 258 260 262 263 264 264 264 263 260 257 255 254 253 252 251 251 251 251 252 252 252 253 253 253 253 253 254 253 252 251 249 249 248 247 246 246 246 247 247 247 246 245 245 245 244 244 245 246 249
318 313 308 306 304 302 302 303 305 301 296 295 297 299 301 301 302 302 303 305 305 304 301 298 293 288 283 280 278 274 270 266 264 263 261 260 259 261 264 265 264 263 263 262 260 258 256 254 253 252 252 252 252 252 252 252 252 252 252 252 253 253 253 254 253 253 252 251 250 248 247 246 246 246 245 244 243 244 244 244 243 244 244 245 247
319 314 310 307 304 302 302 303 303 298 293 293 295 298 300 302 303 304 305 305 305 305 303 300 296 289 283 279 277 273 269 265 263 262 261 261 260 260 261 262 263 262 260 260 259 258 257 256 254 253 253 253 253 254 254 253 253 252 252 251 251 251 251 251 252 252 251 251 250 249 248 247 246 245 243 242 242 242 242 242 243 244 244 245 246
318 312 308 305 303 302 301 301 300 296 294 296 299 301 302 302 302 304 305 306 306 305 304 303 298 293 286 282 278 275 270 265 262 259 257 257 256 256 257 257 259 260 259 259 259 258 259 259 258 257 256 256 256 256 256 255 255 254 253 252 251 251 250 250 250 251 250 250 249 249 248 247 247 246 244 242 241 240 240 241 242 244 244 244 245
315 310 308 305 303 302 301 299 298 296 297 300 303 306 307 305 302 302 303 305 305 304 304 302 299 295 290 286 281 277 272 267 263 259 256 254 253 253 254 255 257 259 261 263 263 263 264 265 265 265 264 263 263 262 261 260 259 258 256 255 254 253 252 251 250 250 250 249 248 248 247 246 246 246 245 244 242 240 240 240 242 242 242 243 244
310 308 308 307 306 304 302 300 299 299 301 304 307 309 310 310 306 302 301 302 303 303 302 300 298 296 293 289 285 281 276 271 266 262 259 256 254 254 254 255 257 259 262 265 266 267 269 270 270 270 270 270 269 269 270 269 268 265 263 260 258 257 255 253 251 249 248 247 246 245 244 243 243 244 244 243 243 241 241 241 241 241 241 242 242
308 308 310 310 310 308 305 303 303 304 305 307 310 312 313 312 310 306 303 302 302 302 301 299 297 295 294 291 287 283 279 275 270 266 263 260 258 257 257 257 259 261 264 266 267 269 271 272 272 273 274 274 274 274 276 276 275 273 270 267 264 260 257 255 253 251 248 246 245 244 242 240 238 238 240 240 240 240 240 241 242 241 241 240 241
308 310 311 311 312 311 309 308 307 308 308 309 312 313 314 314 312 309 307 304 302 302 301 299 297 295 293 290 287 284 281 278 274 271 268 265 262 261 260 261 262 264 266 268 270 271 272 272 273 274 275 276 276 277 278 278 277 276 274 272 269 265 260 256 253 252 250 248 246 244 242 239 235 233 234 236 236 236 237 238 240 240 241 240 240
313 313 314 314 313 312 311 310 310 310 310 311 312 313 314 314 313 311 309 305 303 301 300 299 298 295 292 289 286 284 282 279 277 274 272 270 268 266 265 266 266 267 268 270 271 272 273 273 274 275 275 276 277 278 278 278 278 277 276 274 271 267 262 257 252 250 248 247 246 244 243 241 236 231 230 231 232 232 233 235 236 238 239 238 238
317 317 317 316 315 313 313 312 311 311 311 312 313 313 314 313 312 311 310 306 303 301 299 299 298 295 292 290 288 285 283 280 278 275 273 271 269 268 267 267 267 268 269 270 272 272 272 273 273 274 275 276 278 279 280 280 279 277 275 273 270 265 260 255 251 247 245 245 244 243 242 240 236 232 230 230 230 229 230 231 233 235 237 236 236
317 317 316 315 314 314 313 313 312 312 312 312 313 313 313 312 311 310 308 305 303 301 299 298 297 295 293 292 289 286 283 281 279 276 274 271 269 267 266 266 267 268 270 271 270 270 271 272 273 274 275 277 278 280 280 278 276 274 272 269 266 262 258 254 251 248 244 242 242 242 240 238 235 232 230 229 228 228 228 229 230 233 235 235 235
318 316 315 314 314 313 313 314 314 313 313 312 313 313 312 312 312 310 307 304 301 300 299 297 295 295 294 293 291 286 282 279 278 276 273 270 269 269 268 268 269 270 270 269 269 270 272 274 275 276 277 278 279 278 275 271 268 267 267 265 263 263 261 257 254 251 247 243 240 239 238 236 233 231 229 228 226 226 227 227 228 231 234 234 234
323 320 319 318 318 317 316 316 315 314 313 313 314 314 314 313 312 310 306 304 301 298 296 294 294 295 295 295 293 287 281 278 276 274 272 271 271 271 271 270 269 268 268 269 272 274 276 278 279 279 280 279 277 273 267 261 258 259 262 262 263 265 264 259 254 251 249 245 241 238 237 234 231 229 229 227 224 223 225 227 228 231 233 234 234
329 328 326 324 322 321 319 317 317 317 317 317 316 315 315 313 311 309 306 303 301 297 293 292 293 293 294 295 293 289 283 279 277 275 275 275 275 273 271 270 270 271 273 276 278 279 280 280 281 281 280 279 274 265 256 252 252 255 260 264 266 269 268 261 253 249 248 246 241 237 236 232 228 227 227 226 222 221 223 226 229 230 231 232 234
332 331 329 327 325 323 321 320 319 319 319 318 317 315 314 311 308 306 303 301 300 296 292 291 291 292 294 294 293 289 285 281 279 279 279 279 277 276 276 277 279 281 282 282 282 282 282 282 281 280 279 277 272 263 254 250 250 253 260 264 268 271 268 259 254 252 249 244 239 235 233 229 225 224 225 224 221 218 219 224 228 230 230 232 235
333 331 329 327 325 324 322 321 320 320 319 317 316 314 313 309 306 303 300 298 298 294 290 290 291 292 294 295 293 289 283 279 279 280 281 281 282 285 287 288 289 289 287 286 285 284 285 285 284 283 280 278 274 266 257 251 248 251 257 262 268 271 265 255 256 260 254 244 235 228 226 223 221 221 223 222 220 216 217 223 228 230 231 233 236
334 332 330 329 326 324 323 321 320 318 316 314 313 311 309 307 304 301 298 296 295 292 289 289 291 293 295 296 292 286 280 279 282 284 285 288 291 293 295 295 294 292 290 291 291 293 295 293 291 289 285 281 277 268 259 251 245 247 254 259 266 268 256 247 252 255 251 242 230 219 214 215 218 219 220 220 219 216 216 221 227 230 230 232 235
335 333 331 329 327 325 322 320 318 316 314 312 310 307 305 303 300 298 295 292 291 290 288 288 290 294 297 295 288 282 280 285 288 289 292 295 298 299 298 297 297 297 300 304 307 308 307 302 299 297 293 287 278 267 259 250 244 245 251 255 260 255 245 246 248 243 237 230 220 211 208 211 217 219 219 219 219 218 217 219 224 228 229 231 234
338 336 333 330 328 326 324 322 320 318 316 313 310 306 303 300 297 295 292 287 287 287 286 288 293 297 297 290 283 282 286 290 291 294 298 301 302 301 302 304 310 318 322 321 320 319 319 317 316 316 312 300 282 266 258 251 247 248 251 253 254 245 241 243 236 223 219 217 211 207 206 209 214 219 221 221 219 219 218 219 221 226 229 231 234
341 339 335 333 332 331 329 326 324 321 319 317 314 311 307 300 295 292 288 285 286 285 285 290 297 298 292 284 282 287 291 293 295 300 305 306 305 309 320 337 340 334 329 326 324 326 328 329 328 327 327 320 299 276 266 260 257 255 253 253 249 238 234 231 218 208 210 212 209 205 202 203 207 212 216 220 221 221 221 220 221 225 228 231 235
343 340 337 337 337 336 333 329 327 326 325 323 321 318 312 304 297 291 288 288 286 283 288 297 301 295 284 281 288 293 295 298 302 307 311 319 343 10 25 14 346 332 329 329 329 335 340 342 341 339 336 328 312 295 281 269 262 256 253 251 242 228 221 216 208 203 204 207 207 203 199 200 203 205 208 213 217 221 223 223 223 225 228 233 236
344 342 341 341 341 340 338 336 334 334 332 330 326 322 316 308 300 294 293 291 284 285 297 304 299 288 281 287 297 298 300 306 311 321 43 72 60 52 56 25 349 341 340 337 341 353 1 359 355 350 342 332 318 301 285 272 263 258 254 243 221 209 206 205 205 203 202 203 202 198 195 196 200 205 209 211 212 216 220 223 225 227 229 232 232
345 344 344 344 345 345 344 344 342 341 339 337 334 330 323 315 308 304 301 293 288 297 307 306 293 283 286 298 304 305 307 315 7 98 87 69 60 66 48 354 349 349 348 345 349 3 7 1 353 346 340 335 325 305 284 271 267 260 234 202 194 195 198 202 202 195 190 192 193 194 196 199 201 205 209 210 210 211 214 218 220 223 225 227 228
346 346 347 347 347 348 349 349 348 347 347 347 346 345 342 333 326 323 314 303 307 313 313 301 286 286 299 309 311 309 313 29 110 98 71 56 58 47 346 343 348 353 353 352 355 2 1 352 346 345 346 344 337 325 306 287 278 214 183 183 186 187 187 188 188 183 183 186 191 196 201 205 206 206 208 209 210 211 211 212 213 215 219 222 227
347 348 349 349 349 350 352 353 352 352 353 355 357 356 352 347 346 346 336 324 325 325 314 295 290 302 313 317 312 303 209 126 114 85 57 57 60 344 327 338 349 356 359 358 359 359 353 342 340 345 352 354 355 2 19 40 65 128 168 180 181 179 177 177 177 179 182 188 195 200 203 206 206 205 205 208 212 213 211 210 211 214 217 223 228
348 348 349 350 350 351 353 355 355 355 355 356 357 355 354 357 3 1 346 338 337 332 311 296 307 320 324 315 256 177 148 139 117 72 57 70 82 296 319 341 355 1 2 1 358 357 349 334 331 335 336 336 356 10 13 26 57 99 145 170 181 188 191 191 187 183 184 190 194 196 198 201 203 203 203 206 209 210 209 209 212 215 219 224 229
348 348 349 350 351 351 354 356 357 357 358 358 358 359 2 7 7 356 348 347 345 332 308 311 327 332 324 218 178 163 155 147 117 67 61 66 275 289 320 344 356 358 1 5 3 360 354 333 315 308 304 307 348 8 4 12 50 84 109 148 173 182 185 186 182 178 182 190 194 193 193 195 197 199 200 202 203 205 206 208 212 216 220 225 229
349 349 349 349 350 352 354 356 357 358 360 2 4 6 7 7 0 352 353 356 352 329 324 335 340 340 279 181 173 166 162 152 115 71 65 53 288 285 315 341 349 349 354 4 6 2 360 348 317 294 290 301 342 12 18 37 76 94 95 107 125 136 144 151 152 152 161 173 183 190 196 195 190 189 191 192 194 198 202 206 212 217 222 228 233
349 349 348 349 350 351 353 356 357 358 359 1 4 5 2 359 354 352 358 8 5 342 349 350 350 353 166 167 158 154 159 159 145 70 52 38 326 296 318 340 345 344 346 351 360 6 7 4 346 296 287 296 320 7 45 77 100 105 97 98 102 107 114 123 130 138 146 154 162 173 182 185 183 182 182 185 191 197 203 209 215 221 227 233 238
Height
5589 5585 5582 5578 5574 5571 5567 5564 5561 5558 5555 5552 5549 5546 5544 5543 5540 5538 5536 5535 5533 5531 5530 5530 5528 5527 5526 5526 5525 5524 5524 5525 5525 5525 5526 5526 5526 5527 5528 5529 5531 5532 5533 5534 5535 5536 5537 5539 5540 5541 5542 5545 5548 5549 5549 5550 5552 5554 5556 5558 5560 5561 5562 5564 5566 5567 5568 5569 5569 5570 5571 5571 5573 5574 5576 5578 5580 5581 5584 5585 5586 5586 5588 5590 5590
5578 5574 5570 5566 5563 5559 5556 5553 5549 5546 5543 5539 5536 5533 5530 5528 5526 5523 5522 5521 5519 5518 5517 5516 5516 5515 5514 5513 5512 5513 5513 5513 5513 5513 5514 5515 5516 5517 5518 5519 5520 5522 5523 5524 5525 5526 5528 5530 5531 5532 5533 5535 5539 5541 5540 5541 5542 5545 5547 5549 5552 5553 5553 5555 5558 5560 5561 5562 5562 5561 5562 5564 5566 5567 5569 5571 5574 5575 5576 5577 5578 5579 5581 5582 5583
5568 5563 5559 5555 5551 5547 5543 5540 5536 5532 5529 5525 5521 5518 5516 5514 5511 5508 5506 5505 5504 5504 5504 5503 5502 5502 5501 5500 5500 5500 5500 5500 5501 5502 5502 5504 5505 5507 5508 5508 5510 5512 5513 5514 5516 5517 5519 5521 5522 5523 5524 5525 5528 5531 5531 5532 5533 5536 5538 5540 5542 5543 5544 5546 5549 5552 5553 5553 5552 5553 5556 5557 5558 5561 5564 5565 5566 5567 5568 5570 5571 5572 5573 5575 5576
5556 5552 5546 5543 5539 5535 5531 5528 5524 5520 5516 5512 5507 5503 5500 5498 5496 5493 5491 5489 5488 5488 5488 5488 5487 5487 5487 5487 5487 5487 5488 5488 5488 5489 5490 5491 5494 5495 5497 5498 5499 5501 5503 5505 5507 5509 5511 5512 5513 5514 5515 5516 5518 5521 5522 5523 5524 5527 5529 5531 5532 5534 5536 5538 5541 5543 5544 5544 5544 5546 5548 5549 5552 5556 5557 5557 5558 5560 5561 5563 5564 5565 5566 5568 5569
5544 5539 5534 5530 5525 5520 5517 5514 5509 5506 5502 5498 5494 5490 5486 5482 5480 5477 5474 5473 5472 5471 5471 5471 5471 5472 5472 5473 5474 5474 5474 5475 5476 5476 5476 5478 5481 5483 5485 5487 5488 5490 5492 5495 5497 5499 5501 5503 5504 5505 5506 5507 5508 5511 5513 5514 5515 5517 5520 5521 5522 5525 5526 5528 5532 5534 5536 5536 5536 5538 5539 5542 5545 5547 5549 5550 5551 5552 5553 5555 5557 5558 5559 5561 5562
5532 5527 5521 5515 5510 5505 5501 5497 5492 5488 5485 5481 5476 5472 5469 5466 5463 5460 5458 5455 5454 5453 5453 5453 5454 5455 5457 5459 5460 5460 5460 5461 5463 5463 5463 5465 5468 5470 5473 5475 5477 5479 5481 5484 5486 5488 5491 5493 5494 5496 5496 5497 5498 5501 5503 5505 5506 5508 5510 5511 5513 5516 5516 5518 5522 5526 5527 5527 5528 5530 5532 5535 5537 5537 5540 5543 5544 5545 5546 5548 5550 5551 5552 5554 5555
5520 5514 5508 5501 5495 5490 5486 5481 5476 5470 5466 5462 5458 5452 5449 5447 5443 5441 5438 5438 5437 5436 5435 5435 5435 5437 5440 5442 5444 5445 5445 5447 5448 5449 5450 5452 5454 5457 5460 5462 5465 5467 5470 5473 5475 5477 5480 5482 5484 5485 5487 5488 5489 5491 5494 5496 5497 5499 5500 5501 5504 5506 5506 5508 5513 5517 5518 5519 5520 5522 5524 5526 5528 5529 5531 5534 5536 5538 5539 5541 5543 5544 5545 5547 5548
5506 5499 5494 5488 5481 5476 5470 5465 5461 5454 5448 5444 5441 5435 5431 5428 5424 5420 5419 5419 5419 5419 5418 5418 5417 5418 5420 5423 5426 5428 5429 5431 5432 5434 5437 5439 5441 5443 5446 5449 5452 5456 5459 5461 5463 5466 5469 5471 5473 5474 5476 5478 5479 5481 5484 5486 5487 5489 5490 5492 5494 5496 5497 5500 5503 5506 5510 5512 5512 5513 5515 5518 5519 5520 5523 5525 5528 5530 5533 5534 5536 5537 5537 5539 5541
5493 5485 5478 5472 5466 5461 5455 5448 5443 5437 5431 5426 5423 5418 5414 5411 5407 5404 5402 5401 5400 5399 5399 5400 5401 5401 5403 5405 5406 5409 5411 5414 5416 5418 5422 5425 5427 5430 5433 5436 5439 5443 5446 5449 5452 5454 5457 5459 5461 5463 5466 5468 5470 5472 5474 5476 5477 5478 5480 5482 5485 5486 5488 5490 5492 5496 5502 5504 5504 5505 5507 5509 5512 5513 5514 5517 5519 5521 5525 5527 5527 5528 5529 5531 5533
5479 5471 5464 5457 5451 5445 5439 5433 5426 5420 5415 5409 5405 5402 5398 5395 5392 5390 5388 5386 5384 5383 5382 5383 5384 5385 5386 5387 5388 5389 5392 5396 5398 5401 5405 5409 5412 5416 5419 5422 5426 5429 5433 5436 5439 5441 5444 5448 5450 5452 5454 5457 5460 5463 5465 5467 5468 5469 5470 5471 5474 5477 5478 5480 5482 5486 5492 5495 5496 5497 5498 5500 5504 5506 5507 5509 5511 5512 5514 5518 5519 5521 5522 5523 5524
5464 5456 5450 5444 5439 5433 5425 5419 5412 5406 5401 5396 5391 5388 5385 5383 5381 5379 5378 5375 5372 5371 5370 5370 5371 5370 5370 5370 5371 5372 5374 5377 5381 5384 5388 5392 5396 5401 5405 5409 5412 5416 5420 5422 5425 5428 5432 5435 5438 5441 5443 5446 5449 5453 5455 5458 5459 5461 5461 5462 5464 5467 5468 5470 5473 5475 5480 5486 5488 5489 5491 5493 5495 5498 5500 5501 5502 5503 5505 5507 5511 5514 5514 5515 5517
5449 5440 5434 5428 5423 5419 5413 5406 5400 5395 5390 5386 5382 5379 5376 5375 5373 5371 5370 5367 5364 5363 5362 5362 5361 5360 5358 5358 5358 5358 5358 5360 5364 5368 5372 5375 5380 5385 5390 5394 5399 5403 5406 5409 5412 5414 5418 5422 5426 5429 5432 5434 5437 5440 5444 5447 5449 5452 5453 5454 5456 5458 5458 5460 5463 5466 5469 5475 5480 5483 5484 5485 5487 5490 5492 5493 5494 5496 5497 5498 5501 5505 5506 5508 5510
5434 5426 5421 5415 5409 5404 5400 5394 5389 5386 5381 5377 5375 5372 5370 5369 5366 5364 5362 5360 5358 5356 5355 5354 5353 5352 5350 5350 5349 5349 5348 5348 5350 5353 5357 5360 5364 5369 5374 5378 5384 5389 5393 5396 5399 5401 5404 5408 5412 5416 5420 5422 5425 5428 5432 5435 5437 5440 5443 5444 5446 5448 5449 5450 5453 5457 5459 5463 5470 5475 5476 5476 5478 5481 5483 5485 5487 5487 5489 5491 5492 5495 5497 5499 5502
5425 5418 5413 5405 5398 5392 5387 5382 5378 5376 5374 5371 5369 5367 5364 5363 5360 5358 5356 5354 5352 5350 5349 5348 5347 5345 5344 5343 5343 5341 5340 5340 5340 5342 5344 5347 5351 5355 5358 5363 5369 5375 5379 5383 5385 5388 5391 5395 5399 5403 5407 5410 5413 5416 5419 5422 5425 5428 5430 5433 5435 5438 5439 5440 5442 5447 5450 5453 5458 5464 5468 5469 5470 5472 5474 5476 5479 5479 5481 5483 5484 5485 5487 5489 5494
5414 5408 5402 5394 5388 5383 5378 5374 5370 5368 5367 5365 5363 5361 5359 5357 5355 5353 5351 5349 5347 5345 5344 5343 5341 5340 5338 5337 5336 5335 5334 5333 5333 5333 5334 5336 5340 5344 5347 5350 5355 5360 5365 5369 5373 5375 5379 5382 5386 5390 5393 5397 5400 5404 5407 5409 5412 5415 5418 5421 5424 5426 5429 5430 5433 5436 5439 5444 5447 5452 5457 5460 5462 5464 5465 5467 5471 5472 5473 5474 5475 5476 5478 5480 5485
5402 5395 5389 5384 5379 5374 5370 5367 5365 5363 5362 5359 5357 5356 5354 5351 5349 5348 5346 5344 5342 5340 5338 5337 5336 5334 5333 5331 5330 5329 5327 5327 5326 5326 5326 5327 5329 5333 5336 5339 5342 5347 5352 5357 5361 5364 5367 5370 5374 5377 5381 5384 5387 5391 5394 5397 5399 5402 5405 5409 5412 5414 5417 5420 5423 5425 5428 5433 5437 5440 5444 5449 5453 5456 5456 5458 5462 5464 5464 5466 5467 5468 5470 5472 5475
5391 5384 5378 5374 5370 5367 5364 5361 5360 5358 5356 5354 5352 5350 5348 5346 5343 5342 5340 5338 5336 5335 5333 5331 5330 5329 5327 5326 5324 5323 5322 5320 5320 5320 5320 5320 5321 5322 5325 5328 5331 5334 5338 5344 5348 5352 5355 5358 5361 5365 5368 5371 5375 5378 5381 5384 5387 5389 5393 5397 5400 5403 5405 5409 5412 5415 5418 5422 5425 5428 5433 5438 5443 5447 5449 5450 5453 5455 5456 5458 5459 5460 5462 5462 5465
5381 5375 5369 5365 5363 5361 5358 5356 5355 5353 5351 5349 5347 5345 5343 5340 5338 5336 5334 5332 5330 5329 5327 5326 5324 5322 5321 5320 5318 5317 5316 5315 5314 5314 5314 5314 5315 5315 5316 5318 5320 5322 5325 5330 5335 5340 5343 5346 5349 5352 5356 5359 5362 5366 5369 5373 5375 5378 5382 5385 5389 5392 5394 5398 5401 5404 5408 5411 5413 5416 5421 5426 5431 5436 5439 5441 5444 5446 5448 5449 5451 5452 5453 5454 5457
5372 5367 5362 5359 5357 5354 5353 5351 5350 5348 5346 5344 5342 5340 5338 5336 5333 5330 5329 5327 5324 5323 5321 5320 5318 5316 5315 5314 5312 5311 5310 5309 5309 5308 5308 5309 5309 5309 5309 5310 5312 5313 5315 5319 5323 5328 5332 5335 5338 5341 5344 5347 5351 5354 5358 5361 5364 5368 5371 5374 5378 5380 5382 5386 5390 5393 5396 5400 5402 5406 5410 5415 5421 5424 5427 5431 5434 5437 5438 5440 5442 5444 5445 5447 5449
5364 5360 5356 5352 5351 5349 5348 5346 5345 5343 5341 5339 5338 5335 5333 5331 5328 5325 5323 5321 5319 5317 5315 5313 5312 5311 5309 5308 5307 5306 5305 5304 5304 5304 5303 5304 5304 5304 5304 5304 5305 5306 5308 5310 5313 5316 5321 5325 5328 5331 5334 5337 5340 5343 5347 5350 5353 5357 5361 5363 5366 5368 5369 5374 5378 5380 5384 5388 5391 5395 5399 5404 5409 5412 5416 5421 5424 5427 5428 5431 5433 5435 5437 5439 5441
5358 5354 5350 5347 5346 5345 5343 5342 5340 5339 5337 5335 5334 5331 5328 5326 5323 5320 5317 5315 5313 5311 5309 5308 5306 5305 5304 5302 5301 5300 5300 5299 5299 5299 5299 5299 5299 5299 5299 5300 5300 5301 5302 5304 5306 5307 5310 5314 5318 5321 5324 5327 5330 5333 5336 5338 5342 5346 5349 5352 5354 5355 5358 5362 5365 5368 5372 5377 5381 5384 5388 5391 5396 5401 5406 5410 5414 5416 5419 5422 5424 5427 5429 5432 5433
5353 5349 5346 5343 5342 5340 5339 5338 5336 5335 5333 5331 5329 5326 5324 5321 5318 5315 5312 5310 5308 5306 5304 5302 5301 5300 5299 5298 5297 5296 5295 5294 5294 5294 5294 5294 5294 5294 5295 5295 5295 5296 5297 5298 5299 5301 5302 5304 5307 5310 5313 5316 5319 5322 5324 5327 5330 5334 5336 5339 5341 5343 5345 5349 5353 5356 5361 5366 5370 5372 5375 5379 5384 5390 5395 5399 5403 5406 5409 5412 5415 5418 5421 5424 5426
5349 5346 5342 5340 5339 5337 5336 5335 5333 5331 5329 5326 5324 5321 5318 5315 5312 5310 5307 5305 5303 5301 5299 5297 5296 5295 5294 5294 5293 5292 5291 5290 5289 5289 5289 5289 5289 5289 5289 5290 5291 5291 5292 5293 5293 5294 5296 5297 5298 5301 5303 5305 5307 5309 5312 5315 5318 5321 5323 5325 5327 5330 5332 5335 5340 5344 5349 5355 5359 5360 5363 5367 5372 5377 5383 5388 5392 5396 5399 5402 5406 5409 5412 5415 5417
5345 5342 5340 5338 5336 5334 5332 5331 5329 5328 5326 5323 5320 5317 5313 5310 5307 5305 5302 5300 5298 5296 5295 5293 5292 5291 5290 5289 5288 5288 5287 5286 5286 5285 5284 5284 5284 5284 5284 5285 5286 5287 5287 5288 5288 5289 5290 5291 5292 5294 5295 5296 5297 5299 5300 5303 5306 5308 5310 5312 5314 5316 5319 5322 5326 5331 5336 5342 5346 5348 5352 5356 5360 5365 5371 5376 5381 5386 5390 5393 5396 5400 5403 5406 5408
5342 5339 5336 5334 5332 5330 5328 5326 5325 5323 5321 5319 5316 5313 5309 5306 5302 5300 5297 5295 5293 5291 5290 5289 5287 5287 5286 5285 5284 5283 5282 5282 5281 5281 5280 5280 5280 5280 5280 5281 5281 5282 5283 5283 5284 5284 5285 5286 5287 5288 5289 5290 5290 5291 5292 5294 5295 5297 5299 5300 5301 5302 5305 5308 5312 5317 5322 5328 5332 5336 5342 5346 5348 5353 5359 5365 5370 5375 5379 5383 5387 5391 5395 5397 5399
5339 5335 5333 5331 5329 5326 5324 5322 5320 5318 5316 5314 5311 5308 5305 5302 5298 5295 5292 5290 5288 5286 5285 5284 5283 5282 5281 5280 5279 5278 5277 5277 5277 5276 5276 5276 5276 5276 5276 5277 5277 5277 5278 5278 5279 5279 5280 5280 5281 5282 5283 5284 5284 5285 5285 5286 5287 5288 5289 5290 5289 5290 5292 5295 5299 5304 5309 5314 5318 5323 5329 5334 5337 5342 5349 5354 5359 5364 5369 5373 5377 5382 5385 5387 5390
5336 5332 5330 5327 5325 5323 5321 5318 5316 5314 5312 5309 5306 5303 5299 5297 5294 5291 5288 5286 5283 5281 5280 5279 5277 5276 5276 5275 5274 5273 5273 5272 5272 5271 5271 5271 5271 5271 5272 5272 5272 5272 5273 5273 5273 5273 5274 5274 5275 5275 5276 5277 5277 5277 5277 5278 5279 5279 5280 5280 5279 5279 5281 5284 5287 5291 5296 5300 5304 5309 5315 5320 5325 5331 5338 5343 5347 5352 5358 5363 5368 5371 5374 5378 5381
5333 5330 5326 5324 5321 5319 5317 5315 5312 5310 5308 5305 5302 5299 5295 5291 5289 5286 5284 5282 5279 5277 5275 5274 5272 5271 5270 5269 5268 5267 5267 5267 5266 5266 5266 5266 5266 5266 5266 5267 5267 5267 5267 5267 5267 5267 5267 5267 5267 5267 5267 5268 5268 5268 5268 5269 5269 5269 5270 5270 5270 5269 5270 5272 5275 5278 5282 5285 5288 5293 5300 5307 5313 5318 5324 5331 5336 5342 5348 5352 5357 5360 5364 5368 5372
5330 5327 5324 5320 5318 5315 5313 5311 5308 5305 5303 5300 5298 5295 5292 5288 5285 5282 5280 5277 5275 5273 5271 5269 5267 5266 5264 5263 5262 5261 5261 5261 5260 5260 5260 5260 5260 5260 5260 5260 5261 5261 5261 5260 5260 5260 5260 5260 5260 5259 5259 5259 5259 5259 5259 5259 5258 5258 5259 5259 5259 5259 5260 5262 5263 5266 5270 5273 5275 5279 5286 5293 5300 5305 5310 5316 5323 5330 5337 5342 5346 5349 5354 5359 5363
5327 5324 5321 5318 5315 5312 5309 5306 5303 5300 5298 5295 5293 5290 5287 5285 5281 5278 5275 5272 5270 5268 5266 5264 5262 5261 5259 5257 5256 5256 5255 5255 5254 5254 5254 5254 5254 5254 5254 5254 5254 5254 5254 5253 5253 5253 5252 5252 5251 5251 5250 5250 5250 5250 5250 5249 5247 5247 5247 5247 5247 5248 5249 5250 5252 5254 5258 5261 5264 5267 5273 5280 5287 5293 5298 5303 5309 5317 5325 5331 5336 5340 5345 5350 5354
5325 5321 5318 5315 5312 5309 5305 5302 5299 5296 5293 5290 5288 5285 5283 5280 5277 5274 5270 5267 5265 5263 5260 5259 5257 5255 5254 5252 5251 5250 5249 5249 5248 5248 5247 5247 5247 5247 5247 5247 5247 5247 5246 5246 5245 5245 5244 5243 5243 5242 5241 5241 5241 5241 5240 5238 5237 5235 5235 5234 5235 5236 5237 5238 5240 5243 5246 5250 5253 5256 5261 5266 5273 5281 5286 5291 5297 5305 5312 5320 5326 5331 5336 5341 5345
5322 5319 5315 5312 5308 5305 5302 5298 5295 5291 5288 5285 5282 5279 5277 5274 5272 5269 5265 5262 5259 5257 5255 5253 5252 5250 5248 5246 5245 5244 5243 5242 5242 5241 5241 5240 5240 5240 5239 5239 5239 5239 5239 5238 5238 5237 5236 5236 5235 5234 5233 5232 5231 5230 5228 5227 5225 5224 5223 5222 5223 5224 5224 5225 5227 5230 5234 5237 5241 5245 5250 5255 5261 5269 5276 5282 5288 5295 5302 5309 5315 5322 5327 5332 5336
5320 5317 5313 5309 5305 5301 5297 5294 5290 5286 5283 5279 5276 5273 5271 5268 5265 5263 5259 5256 5254 5251 5250 5248 5246 5244 5242 5241 5240 5238 5237 5236 5235 5235 5234 5233 5233 5232 5232 5232 5231 5231 5231 5231 5230 5229 5229 5228 5227 5226 5225 5224 5223 5221 5219 5216 5215 5214 5213 5213 5212 5212 5213 5215 5216 5218 5221 5225 5229 5235 5239 5244 5251 5258 5265 5273 5280 5286 5292 5299 5306 5312 5318 5323 5328
5318 5315 5311 5306 5302 5298 5294 5290 5286 5282 5278 5274 5270 5267 5264 5261 5259 5256 5253 5250 5248 5246 5244 5241 5239 5238 5237 5235 5234 5233 5231 5230 5229 5228 5228 5227 5226 5226 5226 5225 5225 5225 5224 5223 5222 5222 5221 5221 5219 5218 5217 5215 5214 5212 5210 5209 5207 5207 5206 5206 5205 5205 5206 5208 5208 5209 5210 5213 5218 5224 5229 5235 5241 5248 5256 5265 5273 5280 5285 5292 5298 5304 5309 5315 5320
5314 5310 5306 5302 5298 5293 5289 5285 5281 5277 5272 5268 5265 5261 5258 5255 5252 5249 5246 5243 5241 5239 5237 5235 5234 5232 5231 5229 5228 5227 5225 5224 5223 5222 5221 5221 5221 5220 5220 5219 5219 5218 5217 5216 5215 5215 5214 5213 5211 5209 5208 5207 5206 5204 5203 5202 5202 5202 5202 5201 5201 5201 5201 5202 5202 5202 5202 5204 5209 5214 5219 5225 5232 5240 5248 5257 5266 5273 5279 5285 5291 5297 5302 5307 5313
5307 5304 5299 5295 5292 5287 5283 5279 5275 5271 5267 5263 5259 5255 5251 5248 5245 5242 5239 5237 5235 5233 5231 5229 5228 5227 5225 5224 5222 5221 5220 5219 5218 5217 5216 5216 5215 5215 5214 5213 5212 5212 5211 5210 5209 5208 5207 5205 5203 5201 5200 5199 5199 5198 5197 5197 5197 5198 5198 5197 5197 5197 5197 5197 5197 5196 5196 5198 5202 5205 5210 5217 5224 5233 5241 5250 5258 5266 5272 5279 5285 5290 5295 5300 5306
5303 5299 5294 5290 5285 5281 5277 5273 5269 5265 5260 5256 5252 5249 5245 5242 5238 5235 5233 5231 5229 5226 5224 5223 5222 5221 5220 5219 5217 5216 5215 5214 5213 5212 5211 5211 5210 5209 5208 5207 5207 5206 5205 5204 5202 5201 5200 5198 5197 5196 5194 5194 5194 5193 5193 5193 5194 5194 5194 5194 5194 5194 5194 5194 5193 5193 5193 5194 5196 5199 5204 5210 5218 5226 5235 5243 5251 5260 5266 5272 5278 5284 5289 5295 5299
5299 5294 5290 5286 5281 5276 5271 5266 5262 5258 5253 5248 5245 5242 5239 5235 5231 5229 5226 5224 5223 5220 5218 5218 5217 5215 5215 5213 5212 5211 5210 5210 5209 5208 5207 5206 5205 5204 5203 5202 5201 5200 5199 5197 5196 5195 5194 5193 5192 5192 5190 5190 5190 5189 5189 5189 5190 5190 5190 5191 5191 5191 5191 5191 5191 5191 5191 5191 5193 5196 5200 5206 5213 5221 5228 5236 5245 5254 5260 5267 5273 5279 5284 5289 5293
5295 5289 5284 5280 5276 5271 5266 5260 5255 5250 5245 5240 5236 5233 5230 5227 5224 5222 5219 5218 5216 5214 5213 5212 5211 5210 5209 5208 5207 5206 5206 5205 5205 5204 5203 5202 5201 5200 5199 5197 5196 5195 5194 5193 5192 5191 5191 5190 5189 5188 5186 5185 5185 5185 5185 5185 5186 5187 5187 5188 5188 5188 5188 5188 5189 5189 5189 5190 5192 5195 5199 5205 5210 5216 5223 5231 5239 5248 5255 5262 5269 5274 5279 5284 5288
5292 5286 5280 5275 5270 5264 5259 5253 5247 5242 5236 5231 5227 5224 5221 5219 5217 5215 5213 5212 5210 5208 5208 5208 5207 5206 5205 5203 5203 5202 5202 5202 5201 5200 5199 5198 5197 5196 5195 5194 5192 5191 5190 5190 5189 5188 5188 5187 5185 5184 5183 5182 5181 5180 5181 5181 5182 5183 5184 5185 5185 5185 5186 5186 5187 5188 5188 5190 5192 5195 5200 5204 5209 5213 5219 5226 5235 5244 5251 5258 5264 5269 5274 5278 5282
5287 5281 5275 5269 5263 5256 5250 5243 5237 5232 5227 5223 5218 5215 5212 5210 5208 5208 5207 5206 5204 5204 5204 5203 5203 5202 5201 5200 5199 5199 5199 5198 5197 5196 5196 5195 5194 5193 5192 5191 5190 5189 5188 5188 5187 5186 5185 5184 5182 5181 5179 5178 5177 5178 5178 5179 5180 5181 5181 5182 5183 5183 5183 5184 5185 5187 5188 5190 5193 5196 5200 5204 5208 5212 5218 5224 5232 5240 5247 5253 5259 5264 5268 5272 5276
5283 5276 5269 5263 5256 5249 5242 5235 5229 5223 5219 5214 5210 5207 5204 5201 5201 5201 5201 5200 5200 5200 5200 5200 5199 5198 5197 5197 5197 5196 5196 5195 5195 5194 5193 5192 5192 5191 5190 5189 5188 5188 5187 5187 5186 5185 5184 5182 5181 5179 5178 5178 5177 5177 5177 5177 5178 5179 5179 5180 5181 5181 5181 5182 5184 5186 5188 5190 5193 5195 5199 5203 5207 5212 5216 5222 5229 5236 5242 5249 5254 5259 5263 5268 5273
5279 5272 5265 5257 5250 5244 5236 5229 5222 5216 5211 5207 5203 5200 5197 5195 5195 5195 5196 5196 5196 5197 5197 5196 5196 5195 5194 5194 5194 5194 5193 5193 5192 5192 5191 5191 5190 5190 5189 5189 5188 5188 5187 5187 5185 5184 5183 5181 5180 5179 5179 5178 5177 5177 5176 5176 5177 5177 5177 5178 5179 5179 5180 5181 5183 5185 5188 5191 5193 5196 5199 5203 5207 5212 5217 5222 5228 5234 5239 5244 5249 5255 5260 5265 5270
5275 5268 5260 5253 5246 5239 5232 5224 5217 5211 5206 5201 5197 5194 5192 5190 5190 5191 5192 5193 5193 5194 5194 5194 5193 5192 5192 5192 5192 5192 5191 5191 5190 5190 5190 5190 5190 5189 5189 5189 5188 5188 5187 5186 5185 5183 5182 5181 5180 5179 5178 5178 5177 5176 5176 5176 5175 5175 5175 5175 5177 5178 5179 5181 5183 5185 5188 5191 5194 5197 5201 5205 5209 5213 5218 5222 5228 5232 5236 5241 5247 5253 5258 5262 5266
5272 5264 5256 5249 5243 5236 5229 5222 5215 5208 5203 5197 5193 5190 5189 5188 5188 5189 5190 5190 5191 5192 5192 5191 5191 5191 5191 5191 5190 5190 5189 5189 5189 5189 5189 5189 5189 5189 5189 5189 5188 5188 5187 5186 5184 5183 5181 5180 5179 5178 5178 5177 5177 5176 5175 5175 5174 5173 5173 5174 5176 5178 5180 5182 5184 5187 5189 5192 5196 5199 5203 5206 5210 5214 5218 5222 5227 5231 5234 5239 5245 5250 5255 5259 5263
5269 5262 5255 5247 5240 5233 5227 5220 5214 5208 5202 5197 5193 5190 5189 5188 5188 5188 5188 5189 5190 5190 5190 5190 5190 5190 5190 5189 5189 5189 5188 5188 5189 5189 5190 5190 5190 5190 5190 5189 5189 5188 5187 5185 5184 5183 5182 5180 5179 5178 5178 5177 5177 5176 5175 5175 5174 5173 5174 5175 5177 5179 5181 5183 5186 5188 5191 5194 5197 5200 5203 5206 5210 5213 5217 5222 5226 5229 5234 5238 5242 5247 5252 5256 5260
5266 5259 5252 5246 5238 5232 5226 5220 5214 5208 5203 5199 5195 5192 5191 5189 5189 5188 5188 5189 5189 5189 5189 5189 5189 5189 5189 5188 5188 5188 5188 5188 5189 5190 5190 5190 5190 5190 5190 5190 5189 5188 5187 5186 5184 5183 5182 5181 5180 5179 5178 5178 5178 5177 5176 5176 5175 5175 5176 5177 5179 5181 5182 5185 5187 5189 5192 5194 5197 5200 5203 5205 5209 5212 5216 5220 5224 5228 5232 5236 5240 5245 5249 5253 5256
5262 5256 5250 5244 5237 5230 5224 5219 5214 5209 5204 5200 5197 5195 5192 5191 5190 5189 5189 5189 5189 5189 5188 5188 5189 5188 5188 5187 5188 5188 5188 5189 5190 5190 5190 5190 5191 5191 5191 5190 5190 5189 5187 5186 5185 5183 5182 5181 5181 5180 5179 5179 5178 5178 5177 5177 5177 5177 5178 5179 5181 5182 5184 5186 5188 5190 5192 5194 5196 5199 5202 5205 5208 5212 5215 5219 5222 5226 5230 5234 5239 5242 5245 5248 5251
5260 5253 5247 5241 5236 5229 5224 5219 5214 5210 5205 5202 5199 5196 5194 5192 5191 5191 5190 5189 5189 5188 5188 5188 5188 5188 5187 5187 5188 5188 5189 5190 5190 5191 5191 5191 5191 5191 5191 5191 5190 5189 5188 5187 5185 5184 5183 5182 5181 5181 5180 5180 5179 5179 5179 5178 5178 5179 5179 5180 5181 5183 5185 5186 5188 5191 5193 5195 5197 5199 5202 5205 5208 5211 5214 5218 5221 5225 5229 5233 5236 5239 5242 5245 5247
5257 5251 5245 5240 5234 5228 5223 5219 5215 5210 5206 5203 5200 5198 5196 5194 5193 5192 5191 5190 5189 5189 5189 5189 5188 5187 5187 5188 5188 5189 5190 5190 5191 5191 5191 5192 5192 5192 5191 5191 5190 5189 5188 5187 5186 5185 5184 5182 5182 5181 5181 5181 5180 5180 5180 5179 5180 5180 5180 5181 5182 5184 5185 5187 5189 5191 5194 5196 5198 5201 5203 5206 5208 5211 5214 5218 5221 5225 5228 5231 5234 5237 5239 5241 5243
5256 5250 5244 5239 5233 5228 5223 5218 5215 5211 5207 5204 5202 5199 5197 5195 5194 5192 5191 5190 5190 5190 5189 5189 5188 5187 5187 5188 5189 5190 5191 5191 5191 5192 5192 5192 5192 5192 5192 5191 5191 5189 5188 5188 5187 5186 5185 5183 5182 5182 5181 5181 5181 5181 5181 5181 5181 5182 5182 5183 5185 5186 5188 5189 5191 5193 5195 5197 5200 5202 5204 5207 5210 5212 5216 5219 5221 5224 5227 5230 5232 5234 5236 5238 5240